When you browse on this site, cookies collect data to enhance your experience and personalize the content and advertising you see.
Visit our Privacy Policy to learn more. By continuing to use the site, you agree to this use of cookies and data.
  • In Lithuania
  • List of Countries
  • For 7 days
  • Water Temperature
  • Satellite Maps
  • Weather Map
  • Weather Widgets
  • user-avatar
    Login

    Hourly Weather Krivoy Kust

    Today, 23 May, Thursday

    Time Temperature Precipitation Wind Pressure Humidity
    00:00 +16°C° 0 mm 2 mps 739 mmHg 87%
    01:00 +15°C° 0 mm 2 mps 738 mmHg 89%
    02:00 +15°C° 0 mm 2 mps 738 mmHg 91%
    03:00 +14°C° 0 mm 2 mps 738 mmHg 92%
    04:00 +14°C° 0 mm 2 mps 738 mmHg 92%
    05:00 +15°C° 0 mm 2 mps 737 mmHg 93%
    06:00 +15°C° 0 mm 2 mps 737 mmHg 93%
    07:00 +16°C° 0 mm 2 mps 737 mmHg 87%
    08:00 +18°C° 0 mm 2 mps 737 mmHg 82%
    09:00 +20°C° 0 mm 2 mps 737 mmHg 76%
    10:00 +21°C° 0 mm 2 mps 737 mmHg 70%
    11:00 +22°C° 0 mm 3 mps 737 mmHg 63%
    12:00 +24°C° 0 mm 3 mps 737 mmHg 56%
    13:00 +24°C° 0 mm 3 mps 736 mmHg 55%
    14:00 +25°C° 0 mm 3 mps 736 mmHg 54%
    15:00 +25°C° 0 mm 3 mps 736 mmHg 52%
    16:00 +25°C° 0.2 mm 3 mps 736 mmHg 58%
    17:00 +24°C° 0.2 mm 3 mps 736 mmHg 64%
    18:00 +24°C° 0.2 mm 2 mps 736 mmHg 69%
    19:00 +21°C° 0.2 mm 2 mps 736 mmHg 73%
    20:00 +19°C° 0.2 mm 2 mps 736 mmHg 76%
    21:00 +18°C° 0.2 mm 2 mps 736 mmHg 80%
    22:00 +17°C° 0 mm 2 mps 736 mmHg 82%
    23:00 +17°C° 0 mm 2 mps 736 mmHg 85%

    Tomorrow, 24 May, Friday

    Time Temperature Precipitation Wind Pressure Humidity
    00:00 +16°C° 0 mm 2 mps 736 mmHg 87%
    01:00 +15°C° 0 mm 2 mps 737 mmHg 90%
    02:00 +15°C° 0 mm 2 mps 737 mmHg 92%
    03:00 +14°C° 0 mm 2 mps 737 mmHg 95%
    04:00 +13°C° 0 mm 3 mps 738 mmHg 95%
    05:00 +13°C° 0 mm 4 mps 738 mmHg 95%
    06:00 +13°C° 0 mm 4 mps 738 mmHg 95%
    07:00 +13°C° 0 mm 4 mps 739 mmHg 94%
    08:00 +13°C° 0 mm 4 mps 739 mmHg 92%
    09:00 +13°C° 0 mm 4 mps 740 mmHg 91%
    10:00 +13°C° 0 mm 4 mps 740 mmHg 89%
    11:00 +13°C° 0 mm 4 mps 740 mmHg 88%
    12:00 +14°C° 0 mm 4 mps 740 mmHg 86%
    13:00 +14°C° 0 mm 4 mps 741 mmHg 85%
    14:00 +14°C° 0 mm 4 mps 741 mmHg 84%
    15:00 +14°C° 0 mm 4 mps 741 mmHg 82%
    16:00 +15°C° 0 mm 4 mps 741 mmHg 80%
    17:00 +17°C° 0 mm 3 mps 741 mmHg 78%
    18:00 +17°C° 0 mm 3 mps 741 mmHg 76%
    19:00 +16°C° 0 mm 3 mps 741 mmHg 80%
    20:00 +14°C° 0 mm 3 mps 741 mmHg 84%
    21:00 +13°C° 0 mm 3 mps 741 mmHg 88%
    22:00 +13°C° 0 mm 3 mps 741 mmHg 88%
    23:00 +12°C° 0 mm 3 mps 741 mmHg 89%

    Day after tomorrow, 25 May, Saturday

    Time Temperature Precipitation Wind Pressure Humidity
    00:00 +12°C° 0 mm 4 mps 741 mmHg 89%
    01:00 +11°C° 0.1 mm 4 mps 741 mmHg 88%
    02:00 +11°C° 0.1 mm 4 mps 741 mmHg 87%
    03:00 +11°C° 0.1 mm 4 mps 741 mmHg 87%
    04:00 +11°C° 0.3 mm 4 mps 741 mmHg 87%
    05:00 +11°C° 0.3 mm 4 mps 740 mmHg 88%
    06:00 +10°C° 0.3 mm 5 mps 740 mmHg 88%
    07:00 +12°C° 0 mm 5 mps 740 mmHg 87%
    08:00 +14°C° 0 mm 5 mps 740 mmHg 86%
    09:00 +15°C° 0 mm 5 mps 740 mmHg 84%
    10:00 +16°C° 0 mm 5 mps 740 mmHg 84%
    11:00 +16°C° 0 mm 5 mps 739 mmHg 83%
    12:00 +17°C° 0 mm 6 mps 739 mmHg 83%
    13:00 +17°C° 0.3 mm 5 mps 739 mmHg 84%
    14:00 +17°C° 0.3 mm 5 mps 738 mmHg 84%
    15:00 +17°C° 0.3 mm 5 mps 738 mmHg 85%
    16:00 +19°C° 0.5 mm 4 mps 738 mmHg 83%
    17:00 +20°C° 0.5 mm 4 mps 737 mmHg 82%
    18:00 +20°C° 0.5 mm 4 mps 737 mmHg 80%
    19:00 +19°C° 0.7 mm 4 mps 736 mmHg 84%
    20:00 +18°C° 0.7 mm 3 mps 736 mmHg 87%
    21:00 +17°C° 0.7 mm 3 mps 736 mmHg 90%
    22:00 +16°C° 0.2 mm 3 mps 736 mmHg 92%
    23:00 +16°C° 0.2 mm 3 mps 735 mmHg 93%

    26 May, Sunday

    Time Temperature Precipitation Wind Pressure Humidity
    00:00 +14°C° 0.2 mm 3 mps 735 mmHg 95%
    01:00 +14°C° 0 mm 3 mps 735 mmHg 95%
    02:00 +14°C° 0 mm 3 mps 734 mmHg 95%
    03:00 +13°C° 0 mm 3 mps 734 mmHg 96%
    04:00 +15°C° 0 mm 2 mps 734 mmHg 95%
    05:00 +15°C° 0 mm 2 mps 734 mmHg 94%
    06:00 +15°C° 0 mm 2 mps 734 mmHg 94%
    07:00 +17°C° 0.1 mm 2 mps 734 mmHg 89%
    08:00 +18°C° 0.1 mm 2 mps 734 mmHg 85%
    09:00 +20°C° 0.1 mm 2 mps 734 mmHg 80%
    10:00 +20°C° 1.4 mm 2 mps 734 mmHg 77%
    11:00 +21°C° 1.4 mm 2 mps 733 mmHg 73%
    12:00 +23°C° 1.4 mm 2 mps 733 mmHg 69%
    13:00 +22°C° 2 mm 3 mps 733 mmHg 71%
    14:00 +22°C° 2 mm 3 mps 733 mmHg 72%
    15:00 +22°C° 2 mm 4 mps 733 mmHg 73%
    16:00 +21°C° 0.4 mm 4 mps 733 mmHg 75%
    17:00 +21°C° 0.4 mm 3 mps 733 mmHg 77%
    18:00 +21°C° 0.4 mm 3 mps 733 mmHg 79%
    19:00 +19°C° 0 mm 3 mps 734 mmHg 80%
    20:00 +17°C° 0 mm 3 mps 734 mmHg 81%
    21:00 +15°C° 0 mm 4 mps 734 mmHg 82%
    22:00 +14°C° 0 mm 3 mps 734 mmHg 83%
    23:00 +13°C° 0 mm 3 mps 734 mmHg 84%

    27 May, Monday

    Time Temperature Precipitation Wind Pressure Humidity
    00:00 +12°C° 0 mm 3 mps 735 mmHg 85%
    01:00 +12°C° 0 mm 3 mps 735 mmHg 87%
    02:00 +11°C° 0 mm 3 mps 734 mmHg 88%
    03:00 +11°C° 0 mm 3 mps 734 mmHg 89%
    04:00 +12°C° 0.2 mm 4 mps 734 mmHg 89%
    05:00 +12°C° 0.2 mm 5 mps 734 mmHg 89%
    06:00 +13°C° 0.2 mm 6 mps 734 mmHg 88%
    07:00 +11°C° 1 mm 6 mps 734 mmHg 87%
    08:00 +11°C° 1 mm 6 mps 735 mmHg 86%
    09:00 +11°C° 1 mm 6 mps 735 mmHg 85%
    10:00 +11°C° 0.2 mm 7 mps 735 mmHg 80%
    11:00 +12°C° 0.2 mm 8 mps 736 mmHg 75%
    12:00 +12°C° 0.2 mm 9 mps 736 mmHg 70%
    13:00 +13°C° 0.2 mm 9 mps 736 mmHg 68%
    14:00 +13°C° 0.2 mm 9 mps 737 mmHg 66%
    15:00 +13°C° 0.2 mm 9 mps 737 mmHg 63%
    16:00 +13°C° 0 mm 8 mps 738 mmHg 65%
    17:00 +13°C° 0 mm 8 mps 738 mmHg 66%
    18:00 +12°C° 0 mm 7 mps 739 mmHg 67%
    19:00 +12°C° 0 mm 7 mps 739 mmHg 70%
    20:00 +11°C° 0 mm 6 mps 740 mmHg 74%
    21:00 +10°C° 0 mm 5 mps 741 mmHg 77%
    22:00 +9°C° 0 mm 5 mps 741 mmHg 78%
    23:00 +9°C° 0 mm 5 mps 742 mmHg 80%

    28 May, Tuesday

    Time Temperature Precipitation Wind Pressure Humidity
    00:00 +9°C° 0 mm 5 mps 742 mmHg 82%
    01:00 +8°C° 0 mm 5 mps 743 mmHg 84%
    02:00 +8°C° 0 mm 5 mps 743 mmHg 87%
    03:00 +8°C° 0 mm 4 mps 743 mmHg 89%
    04:00 +8°C° 0 mm 4 mps 744 mmHg 89%
    05:00 +8°C° 0 mm 4 mps 744 mmHg 89%
    06:00 +8°C° 0 mm 4 mps 745 mmHg 89%
    07:00 +11°C° 0 mm 4 mps 745 mmHg 84%
    08:00 +13°C° 0 mm 4 mps 745 mmHg 79%
    09:00 +14°C° 0 mm 4 mps 745 mmHg 74%
    10:00 +17°C° 0 mm 4 mps 745 mmHg 69%
    11:00 +18°C° 0 mm 4 mps 745 mmHg 65%
    12:00 +19°C° 0 mm 4 mps 745 mmHg 61%
    13:00 +20°C° 0 mm 4 mps 745 mmHg 61%
    14:00 +20°C° 0 mm 4 mps 745 mmHg 62%
    15:00 +21°C° 0 mm 4 mps 745 mmHg 62%
    16:00 +21°C° 0 mm 4 mps 745 mmHg 66%
    17:00 +20°C° 0 mm 3 mps 745 mmHg 69%
    18:00 +20°C° 0 mm 3 mps 745 mmHg 72%
    19:00 +19°C° 0 mm 3 mps 745 mmHg 76%
    20:00 +18°C° 0 mm 3 mps 745 mmHg 80%
    21:00 +16°C° 0 mm 3 mps 745 mmHg 85%
    22:00 +16°C° 0 mm 3 mps 745 mmHg 84%
    23:00 +14°C° 0 mm 3 mps 745 mmHg 83%
    Show more